Time,TemperatureF,DewpointF,PressureIn,WindDirection,WindDirectionDegrees,WindSpeedMPH,WindSpeedGustMPH,Humidity,HourlyPrecipIn,Conditions,Clouds,dailyrainin,SoftwareType,DateUTC
2013-05-24 00:02:00,42.0,36.0,-100.00,West,270,0.0,1.0,78,-99.99,,,-99.99,,2013-05-24 05:02:00,
2013-05-24 00:12:00,42.0,36.0,-100.00,West,270,0.0,1.0,78,-99.99,,,-99.99,,2013-05-24 05:12:00,
2013-05-24 00:22:00,42.0,36.0,-100.00,West,270,0.0,1.0,78,-99.99,,,-99.99,,2013-05-24 05:22:00,
2013-05-24 00:52:00,41.0,35.0,-100.00,North,0,0.0,1.0,80,-99.99,,,-99.99,,2013-05-24 05:52:00,
2013-05-24 01:02:00,41.0,35.0,-100.00,North,0,0.0,1.0,80,-99.99,,,-99.99,,2013-05-24 06:02:00,
2013-05-24 01:12:00,41.0,35.0,-100.00,North,0,0.0,1.0,80,-99.99,,,-99.99,,2013-05-24 06:12:00,
2013-05-24 01:21:00,41.0,35.0,-100.00,North,0,0.0,1.0,80,-99.99,,,-99.99,,2013-05-24 06:21:00,
2013-05-24 01:42:00,43.0,37.0,-100.00,East,95,6.0,11.0,81,-99.99,,,-99.99,,2013-05-24 06:42:00,
2013-05-24 01:52:00,43.0,37.0,-100.00,East,95,6.0,11.0,81,-99.99,,,-99.99,,2013-05-24 06:52:00,
2013-05-24 02:01:00,43.0,37.0,-100.00,East,95,6.0,11.0,81,-99.99,,,-99.99,,2013-05-24 07:01:00,
2013-05-24 02:11:00,43.0,37.0,-100.00,East,95,6.0,11.0,81,-99.99,,,-99.99,,2013-05-24 07:11:00,
2013-05-24 02:22:00,43.0,37.0,-100.00,East,95,6.0,11.0,81,-99.99,,,-99.99,,2013-05-24 07:22:00,
2013-05-24 02:42:00,39.0,35.0,-100.00,ESE,105,0.0,1.0,85,-99.99,,,-99.99,,2013-05-24 07:42:00,
2013-05-24 02:52:00,39.0,35.0,-100.00,ESE,105,0.0,1.0,85,-99.99,,,-99.99,,2013-05-24 07:52:00,
2013-05-24 03:02:00,39.0,35.0,-100.00,ESE,105,0.0,1.0,85,-99.99,,,-99.99,,2013-05-24 08:02:00,
2013-05-24 03:11:00,39.0,35.0,-100.00,ESE,105,0.0,1.0,85,-99.99,,,-99.99,,2013-05-24 08:11:00,
2013-05-24 03:22:00,39.0,35.0,-100.00,ESE,105,0.0,1.0,85,-99.99,,,-99.99,,2013-05-24 08:22:00,
2013-05-24 03:52:00,37.0,34.0,-100.00,North,0,0.0,2.0,89,-99.99,,,-99.99,,2013-05-24 08:52:00,
2013-05-24 04:02:00,37.0,34.0,-100.00,North,0,0.0,2.0,89,-99.99,,,-99.99,,2013-05-24 09:02:00,
2013-05-24 04:11:00,37.0,34.0,-100.00,North,0,0.0,2.0,89,-99.99,,,-99.99,,2013-05-24 09:11:00,
2013-05-24 04:21:00,37.0,34.0,-100.00,North,0,0.0,2.0,89,-99.99,,,-99.99,,2013-05-24 09:21:00,
2013-05-24 04:42:00,35.0,33.0,-100.00,NW,320,1.0,3.0,90,-99.99,,,-99.99,,2013-05-24 09:42:00,
2013-05-24 04:53:00,35.0,33.0,-100.00,NW,320,1.0,3.0,90,-99.99,,,-99.99,,2013-05-24 09:53:00,
2013-05-24 05:03:00,35.0,33.0,-100.00,NW,320,1.0,3.0,90,-99.99,,,-99.99,,2013-05-24 10:03:00,
2013-05-24 05:12:00,35.0,33.0,-100.00,NW,320,1.0,3.0,90,-99.99,,,-99.99,,2013-05-24 10:12:00,
2013-05-24 05:22:00,35.0,33.0,-100.00,NW,320,1.0,3.0,90,-99.99,,,-99.99,,2013-05-24 10:22:00,
2013-05-24 05:53:00,35.0,33.0,-100.00,NNE,20,0.0,2.0,91,-99.99,,,-99.99,,2013-05-24 10:53:00,
2013-05-24 06:02:00,35.0,33.0,-100.00,NNE,20,0.0,2.0,91,-99.99,,,-99.99,,2013-05-24 11:02:00,
2013-05-24 06:12:00,35.0,33.0,-100.00,NNE,20,0.0,2.0,91,-99.99,,,-99.99,,2013-05-24 11:12:00,
2013-05-24 06:22:00,35.0,33.0,-100.00,NNE,20,0.0,2.0,91,-99.99,,,-99.99,,2013-05-24 11:22:00,
2013-05-24 06:52:00,35.0,33.0,-100.00,WNW,290,0.0,3.0,91,-99.99,,,-99.99,,2013-05-24 11:52:00,
2013-05-24 07:02:00,35.0,33.0,-100.00,WNW,290,0.0,3.0,91,-99.99,,,-99.99,,2013-05-24 12:02:00,
2013-05-24 07:11:00,35.0,33.0,-100.00,WNW,290,0.0,3.0,91,-99.99,,,-99.99,,2013-05-24 12:11:00,
2013-05-24 07:21:00,35.0,33.0,-100.00,WNW,290,0.0,3.0,91,-99.99,,,-99.99,,2013-05-24 12:21:00,
2013-05-24 07:52:00,43.0,34.0,-100.00,NNW,335,1.0,4.0,69,-99.99,,,-99.99,,2013-05-24 12:52:00,
2013-05-24 08:02:00,43.0,34.0,-100.00,NNW,335,1.0,4.0,69,-99.99,,,-99.99,,2013-05-24 13:02:00,
2013-05-24 08:11:00,43.0,34.0,-100.00,NNW,335,1.0,4.0,69,-99.99,,,-99.99,,2013-05-24 13:11:00,
2013-05-24 08:21:00,43.0,34.0,-100.00,NNW,335,1.0,4.0,69,-99.99,,,-99.99,,2013-05-24 13:21:00,
2013-05-24 08:42:00,49.0,31.0,-100.00,ENE,70,2.0,6.0,50,-99.99,,,-99.99,,2013-05-24 13:42:00,
2013-05-24 08:52:00,49.0,31.0,-100.00,ENE,70,2.0,6.0,50,-99.99,,,-99.99,,2013-05-24 13:52:00,
2013-05-24 09:01:00,49.0,31.0,-100.00,ENE,70,2.0,6.0,50,-99.99,,,-99.99,,2013-05-24 14:01:00,
2013-05-24 09:11:00,49.0,31.0,-100.00,ENE,70,2.0,6.0,50,-99.99,,,-99.99,,2013-05-24 14:11:00,
2013-05-24 09:21:00,49.0,31.0,-100.00,ENE,70,2.0,6.0,50,-99.99,,,-99.99,,2013-05-24 14:21:00,
2013-05-24 09:42:00,50.0,29.0,-100.00,ESE,105,3.0,7.0,45,-99.99,,,-99.99,,2013-05-24 14:42:00,
2013-05-24 09:52:00,50.0,29.0,-100.00,ESE,105,3.0,7.0,45,-99.99,,,-99.99,,2013-05-24 14:52:00,
2013-05-24 10:02:00,50.0,29.0,-100.00,ESE,105,3.0,7.0,45,-99.99,,,-99.99,,2013-05-24 15:02:00,
2013-05-24 10:11:00,50.0,29.0,-100.00,ESE,105,3.0,7.0,45,-99.99,,,-99.99,,2013-05-24 15:11:00,
2013-05-24 10:21:00,50.0,29.0,-100.00,ESE,105,3.0,7.0,45,-99.99,,,-99.99,,2013-05-24 15:21:00,
2013-05-24 10:43:00,54.0,31.0,-100.00,NE,55,4.0,9.0,41,-99.99,,,-99.99,,2013-05-24 15:43:00,
2013-05-24 10:52:00,54.0,31.0,-100.00,NE,55,4.0,9.0,41,-99.99,,,-99.99,,2013-05-24 15:52:00,
2013-05-24 11:03:00,54.0,31.0,-100.00,NE,55,4.0,9.0,41,-99.99,,,-99.99,,2013-05-24 16:03:00,
2013-05-24 11:12:00,54.0,31.0,-100.00,NE,55,4.0,9.0,41,-99.99,,,-99.99,,2013-05-24 16:12:00,
2013-05-24 11:22:00,54.0,31.0,-100.00,NE,55,4.0,9.0,41,-99.99,,,-99.99,,2013-05-24 16:22:00,
2013-05-24 11:52:00,58.0,30.0,-100.00,East,90,2.0,7.0,35,-99.99,,,-99.99,,2013-05-24 16:52:00,
2013-05-24 12:02:00,58.0,30.0,-100.00,East,90,2.0,7.0,35,-99.99,,,-99.99,,2013-05-24 17:02:00,
2013-05-24 12:12:00,58.0,30.0,-100.00,East,90,2.0,7.0,35,-99.99,,,-99.99,,2013-05-24 17:12:00,
2013-05-24 12:22:00,58.0,30.0,-100.00,East,90,2.0,7.0,35,-99.99,,,-99.99,,2013-05-24 17:22:00,
2013-05-24 12:42:00,57.0,28.0,-100.00,SE,140,4.0,9.0,33,-99.99,,,-99.99,,2013-05-24 17:42:00,
2013-05-24 12:52:00,57.0,28.0,-100.00,SE,140,4.0,9.0,33,-99.99,,,-99.99,,2013-05-24 17:52:00,
2013-05-24 13:01:00,57.0,28.0,-100.00,SE,140,4.0,9.0,33,-99.99,,,-99.99,,2013-05-24 18:01:00,
2013-05-24 13:12:00,57.0,28.0,-100.00,SE,140,4.0,9.0,33,-99.99,,,-99.99,,2013-05-24 18:12:00,
2013-05-24 13:21:00,57.0,28.0,-100.00,SE,140,4.0,9.0,33,-99.99,,,-99.99,,2013-05-24 18:21:00,
2013-05-24 13:42:00,60.0,28.0,-100.00,East,90,6.0,11.0,29,-99.99,,,-99.99,,2013-05-24 18:42:00,
2013-05-24 13:52:00,60.0,28.0,-100.00,East,90,6.0,11.0,29,-99.99,,,-99.99,,2013-05-24 18:52:00,
2013-05-24 14:01:00,60.0,28.0,-100.00,East,90,6.0,11.0,29,-99.99,,,-99.99,,2013-05-24 19:01:00,
2013-05-24 14:11:00,60.0,28.0,-100.00,East,90,6.0,11.0,29,-99.99,,,-99.99,,2013-05-24 19:11:00,
2013-05-24 14:21:00,60.0,28.0,-100.00,East,90,6.0,11.0,29,-99.99,,,-99.99,,2013-05-24 19:21:00,
2013-05-24 14:52:00,63.0,29.0,-100.00,SSE,155,1.0,9.0,27,-99.99,,,-99.99,,2013-05-24 19:52:00,
2013-05-24 15:02:00,63.0,29.0,-100.00,SSE,155,1.0,9.0,27,-99.99,,,-99.99,,2013-05-24 20:02:00,
2013-05-24 15:11:00,63.0,29.0,-100.00,SSE,155,1.0,9.0,27,-99.99,,,-99.99,,2013-05-24 20:11:00,
2013-05-24 15:21:00,63.0,29.0,-100.00,SSE,155,1.0,9.0,27,-99.99,,,-99.99,,2013-05-24 20:21:00,
2013-05-24 15:52:00,62.0,31.0,-100.00,South,170,5.0,12.0,31,-99.99,,,-99.99,,2013-05-24 20:52:00,
2013-05-24 16:01:00,62.0,31.0,-100.00,South,170,5.0,12.0,31,-99.99,,,-99.99,,2013-05-24 21:01:00,
2013-05-24 16:11:00,62.0,31.0,-100.00,South,170,5.0,12.0,31,-99.99,,,-99.99,,2013-05-24 21:11:00,
2013-05-24 16:21:00,62.0,31.0,-100.00,South,170,5.0,12.0,31,-99.99,,,-99.99,,2013-05-24 21:21:00,
2013-05-24 16:53:00,63.0,32.0,-100.00,SSE,160,4.0,12.0,31,-99.99,,,-99.99,,2013-05-24 21:53:00,
2013-05-24 17:02:00,63.0,32.0,-100.00,SSE,160,4.0,12.0,31,-99.99,,,-99.99,,2013-05-24 22:02:00,
2013-05-24 17:12:00,63.0,32.0,-100.00,SSE,160,4.0,12.0,31,-99.99,,,-99.99,,2013-05-24 22:12:00,
2013-05-24 17:22:00,63.0,32.0,-100.00,SSE,160,4.0,12.0,31,-99.99,,,-99.99,,2013-05-24 22:22:00,
2013-05-24 17:52:00,63.0,30.0,-100.00,ESE,115,4.0,9.0,29,-99.99,,,-99.99,,2013-05-24 22:52:00,
2013-05-24 18:02:00,63.0,30.0,-100.00,ESE,115,4.0,9.0,29,-99.99,,,-99.99,,2013-05-24 23:02:00,
2013-05-24 18:11:00,63.0,30.0,-100.00,ESE,115,4.0,9.0,29,-99.99,,,-99.99,,2013-05-24 23:11:00,
2013-05-24 18:22:00,63.0,30.0,-100.00,ESE,115,4.0,9.0,29,-99.99,,,-99.99,,2013-05-24 23:22:00,
2013-05-24 18:52:00,62.0,31.0,-100.00,SE,125,1.0,8.0,30,-99.99,,,-99.99,,2013-05-24 23:52:00,
2013-05-24 19:01:00,62.0,31.0,-100.00,SE,125,1.0,8.0,30,-99.99,,,-99.99,,2013-05-25 00:01:00,
2013-05-24 19:11:00,62.0,31.0,-100.00,SE,125,1.0,8.0,30,-99.99,,,-99.99,,2013-05-25 00:11:00,
2013-05-24 19:21:00,62.0,31.0,-100.00,SE,125,1.0,8.0,30,-99.99,,,-99.99,,2013-05-25 00:21:00,
2013-05-24 19:42:00,60.0,31.0,-100.00,ESE,115,2.0,4.0,32,-99.99,,,-99.99,,2013-05-25 00:42:00,
2013-05-24 19:52:00,60.0,31.0,-100.00,ESE,115,2.0,4.0,32,-99.99,,,-99.99,,2013-05-25 00:52:00,
2013-05-24 20:01:00,60.0,31.0,-100.00,ESE,115,2.0,4.0,32,-99.99,,,-99.99,,2013-05-25 01:01:00,
2013-05-24 20:11:00,60.0,31.0,-100.00,ESE,115,2.0,4.0,32,-99.99,,,-99.99,,2013-05-25 01:11:00,
2013-05-24 20:22:00,60.0,31.0,-100.00,ESE,115,2.0,4.0,32,-99.99,,,-99.99,,2013-05-25 01:22:00,
2013-05-24 20:52:00,56.0,32.0,-100.00,NE,50,1.0,3.0,40,-99.99,,,-99.99,,2013-05-25 01:52:00,
2013-05-24 21:02:00,56.0,32.0,-100.00,NE,50,1.0,3.0,40,-99.99,,,-99.99,,2013-05-25 02:02:00,
2013-05-24 21:12:00,56.0,32.0,-100.00,NE,50,1.0,3.0,40,-99.99,,,-99.99,,2013-05-25 02:12:00,
2013-05-24 21:21:00,56.0,32.0,-100.00,NE,50,1.0,3.0,40,-99.99,,,-99.99,,2013-05-25 02:21:00,
2013-05-24 21:52:00,49.0,35.0,-100.00,NNW,330,0.0,2.0,59,-99.99,,,-99.99,,2013-05-25 02:52:00,
2013-05-24 22:02:00,49.0,35.0,-100.00,NNW,330,0.0,2.0,59,-99.99,,,-99.99,,2013-05-25 03:02:00,
2013-05-24 22:11:00,49.0,35.0,-100.00,NNW,330,0.0,2.0,59,-99.99,,,-99.99,,2013-05-25 03:11:00,
2013-05-24 22:21:00,49.0,35.0,-100.00,NNW,330,0.0,2.0,59,-99.99,,,-99.99,,2013-05-25 03:21:00,
2013-05-24 22:53:00,47.0,38.0,-100.00,SE,145,0.0,1.0,71,-99.99,,,-99.99,,2013-05-25 03:53:00,
2013-05-24 23:02:00,47.0,38.0,-100.00,SE,145,0.0,1.0,71,-99.99,,,-99.99,,2013-05-25 04:02:00,
2013-05-24 23:13:00,47.0,38.0,-100.00,SE,145,0.0,1.0,71,-99.99,,,-99.99,,2013-05-25 04:13:00,
2013-05-24 23:23:00,47.0,38.0,-100.00,SE,145,0.0,1.0,71,-99.99,,,-99.99,,2013-05-25 04:23:00,
2013-05-24 23:53:00,50.0,39.0,-100.00,ESE,115,4.0,7.0,66,-99.99,,,-99.99,,2013-05-25 04:53:00,